Temperature
5 5 4 4 4 4 3 3 2 2 2 3 3 4 3 3 3 3 3 3 3 3 3 3 4 4 4 4 4 4 4 4 5 5 5 5 5 5
4 4 4 4 4 4 3 3 2 1 1 2 2 3 3 3 3 3 3 3 3 3 3 3 3 3 3 3 3 4 4 4 4 4 4 5 5 5
4 4 4 4 3 3 3 2 2 1 1 1 2 2 2 2 2 2 2 2 3 3 3 3 3 3 3 3 3 4 4 4 4 4 4 4 4 5
4 4 3 3 3 3 2 2 2 1 1 1 1 1 2 2 2 2 2 2 2 2 2 3 3 3 3 3 3 3 3 4 4 4 4 4 4 4
3 3 3 3 3 2 2 2 1 1 1 0 1 1 1 1 1 1 2 2 2 2 2 2 2 3 3 2 3 3 3 3 3 4 4 4 4 4
3 3 3 2 2 2 1 1 1 1 1 0 0 0 1 1 1 1 1 1 2 2 2 2 2 2 2 2 2 3 3 3 3 3 3 3 3 4
3 3 2 2 2 1 1 1 1 0 0 -0 -0 0 0 0 0 0 0 1 1 1 1 1 1 2 2 2 2 2 2 3 3 3 3 3 3 3
2 2 2 2 1 1 1 1 0 0 -0 -0 -0 -0 -0 -0 -0 -0 -0 -0 0 1 1 1 1 1 2 1 2 2 2 2 2 2 2 2 3 3
2 2 1 1 1 1 1 1 0 0 -0 -0 -1 -1 -1 -1 -1 -1 -0 -0 -0 -0 0 0 1 1 1 1 1 1 1 2 2 2 2 2 2 2
2 1 1 1 1 0 0 0 0 0 -0 -0 -1 -1 -1 -1 -1 -1 -1 -0 -0 0 -0 -0 0 1 1 1 1 1 1 1 1 1 1 2 2 2
1 1 0 0 0 -0 -0 -0 -0 -0 -0 -0 -1 -1 -1 -1 -1 -1 -1 -1 -0 -0 -0 -0 -0 -0 0 0 1 1 1 1 1 1 1 1 1 2
1 1 0 -0 -0 -1 -1 -1 -1 -1 -0 -0 -0 -0 -0 -1 -1 -1 -1 -1 -1 -1 -1 -1 -1 -1 -1 -0 -0 0 0 0 1 1 1 1 1 1
0 0 0 -0 -0 -1 -1 -1 -1 -1 -1 -1 -1 -1 -1 -1 -1 -1 -1 -1 -1 -1 -1 -1 -1 -1 -1 -1 -1 -0 -0 0 0 1 1 1 1 1
-0 -0 -1 -1 -1 -1 -1 -1 -1 -1 -1 -1 -1 -1 -1 -1 -1 -1 -1 -1 -1 -1 -1 -1 -1 -1 -1 -1 -1 -1 -1 -0 -0 0 0 1 1 1
-1 -1 -1 -1 -1 -1 -1 -1 -1 -1 -2 -2 -2 -2 -2 -2 -2 -2 -2 -1 -1 -1 -1 -1 -1 -1 -1 -1 -2 -1 -1 -1 -1 -1 -0 0 0 0
-1 -1 -1 -1 -2 -2 -2 -2 -2 -2 -2 -3 -3 -3 -2 -2 -2 -2 -2 -2 -2 -2 -2 -2 -2 -2 -2 -2 -2 -2 -2 -2 -1 -1 -1 -0 -0 -0
-2 -2 -2 -2 -2 -2 -2 -2 -2 -2 -3 -3 -3 -3 -3 -3 -3 -2 -2 -2 -2 -2 -2 -2 -2 -2 -2 -2 -2 -2 -2 -2 -1 -1 -1 -1 -1 -1
-2 -2 -2 -2 -3 -3 -3 -2 -3 -3 -3 -3 -3 -3 -3 -3 -3 -3 -2 -2 -2 -2 -2 -2 -2 -2 -2 -2 -2 -2 -2 -2 -2 -2 -1 -1 -1 -1
-2 -3 -3 -3 -3 -3 -3 -3 -3 -3 -3 -3 -3 -3 -3 -3 -3 -3 -3 -3 -3 -3 -3 -2 -2 -2 -2 -3 -3 -2 -2 -2 -2 -2 -2 -2 -2 -1
-3 -3 -3 -4 -4 -4 -4 -4 -3 -3 -3 -3 -3 -3 -3 -3 -3 -3 -3 -3 -3 -3 -3 -3 -3 -3 -3 -3 -3 -3 -3 -2 -2 -2 -2 -2 -2 -2
-3 -4 -4 -4 -4 -4 -4 -4 -4 -4 -4 -3 -3 -3 -3 -3 -3 -3 -3 -3 -3 -3 -3 -3 -3 -3 -3 -3 -3 -3 -3 -3 -3 -3 -2 -2 -2 -2
-4 -4 -4 -4 -4 -4 -4 -4 -4 -4 -4 -3 -4 -3 -3 -3 -3 -3 -3 -3 -3 -3 -3 -3 -3 -3 -3 -3 -3 -3 -3 -3 -3 -3 -3 -2 -2 -2
-4 -4 -4 -4 -4 -4 -4 -4 -4 -4 -4 -4 -4 -4 -4 -4 -4 -4 -4 -4 -4 -4 -4 -3 -3 -3 -3 -3 -3 -3 -3 -3 -3 -3 -3 -2 -2 -2
Wind_Speed
5 5 5 5 4 4 4 4 5 9 11 8 5 5 6 7 12 11 10 15 17 18 18 18 18 19 18 18 18 18 18 17 17 17 18 18 19 20
4 5 5 5 5 4 4 5 5 7 10 9 8 9 9 10 14 11 10 16 17 18 18 18 18 17 17 17 17 17 16 17 17 17 17 18 18 18
5 5 6 6 5 4 4 4 5 6 10 11 9 9 9 10 10 8 9 9 10 16 18 18 17 16 16 16 16 15 15 15 15 16 16 17 17 16
6 6 7 6 6 5 5 5 6 6 8 12 11 9 9 9 9 9 9 9 8 14 17 17 15 14 14 14 14 14 14 14 14 14 15 15 15 15
6 6 7 6 7 6 6 6 6 7 7 9 11 9 8 8 8 9 9 7 9 11 13 14 13 13 13 12 12 13 13 12 12 12 13 13 13 12
6 6 7 7 8 8 7 7 7 7 7 8 9 9 9 8 7 8 9 6 7 8 9 10 11 12 12 11 12 11 10 11 11 12 11 9 8 9
6 6 7 9 10 9 8 7 7 6 7 8 9 9 9 8 8 6 8 8 7 5 6 6 6 6 7 9 9 9 8 8 7 7 7 7 7 8
7 7 7 8 10 12 13 12 10 8 8 8 8 9 10 9 8 8 8 8 7 3 4 6 4 5 5 5 7 7 5 4 3 3 4 4 5 5
6 6 7 8 10 7 10 12 11 13 12 10 10 10 10 9 9 9 8 8 8 6 5 6 5 5 5 6 7 5 3 3 4 4 4 4 5 5
5 6 7 8 8 8 7 7 8 8 10 8 7 9 9 8 8 7 8 7 6 5 4 5 5 4 5 5 6 4 4 4 5 5 5 5 5 5
5 6 7 7 11 12 8 8 9 8 10 11 12 11 12 12 8 5 5 5 6 4 2 2 4 4 4 3 4 4 5 5 5 5 6 5 5 5
6 6 8 9 11 12 8 7 9 8 8 8 8 8 7 7 8 5 4 4 4 4 2 2 3 3 3 2 2 3 4 4 5 6 6 5 5 3
6 6 6 11 12 12 10 6 8 9 6 6 5 5 4 4 5 5 4 3 4 4 3 2 2 2 2 2 3 3 3 2 3 4 5 5 4 3
5 5 7 11 12 11 9 8 10 8 4 4 4 4 4 5 5 5 4 4 3 4 4 3 2 2 1 2 3 3 3 3 2 2 3 4 4 4
5 8 10 10 10 7 8 9 8 5 4 4 4 5 4 4 4 4 4 4 3 3 4 2 1 0 0 1 2 2 3 3 2 2 2 3 2 2
5 7 9 8 7 7 7 6 5 4 4 4 4 4 4 4 4 4 3 4 3 3 4 4 2 1 1 1 1 2 2 1 2 2 2 2 3 3
5 4 4 4 5 5 5 5 5 4 4 4 4 4 4 4 4 4 3 2 2 2 3 3 3 3 3 2 2 2 2 2 2 2 3 3 3 3
5 3 4 4 5 5 6 6 5 5 4 4 4 3 4 4 4 3 2 2 2 2 2 2 2 2 3 4 4 2 2 2 3 3 3 4 4 4
4 3 4 4 5 5 5 5 5 5 5 4 4 3 3 3 3 3 3 2 2 2 2 2 2 2 3 3 4 5 2 2 3 3 4 3 3 3
3 3 4 4 4 5 5 5 5 5 4 4 4 3 3 3 2 2 2 2 2 2 2 2 2 2 2 1 1 3 5 2 2 3 3 3 3 3
4 4 4 4 4 4 5 5 5 5 4 4 3 4 3 2 2 2 2 3 2 2 2 3 2 2 1 2 3 3 4 5 3 1 1 2 3 4
4 4 4 4 4 4 5 4 4 4 4 3 3 3 3 2 2 2 2 2 2 2 2 2 2 2 3 3 3 2 3 4 6 7 5 2 1 1
5 5 5 5 4 4 4 4 5 4 4 3 3 3 3 2 2 2 1 1 1 2 2 2 2 3 3 3 2 2 3 3 3 4 5 7 6 4
Wind_Direction
261 264 265 266 261 261 263 266 279 297 301 297 302 299 302 295 295 295 289 291 295 294 293 290 287 284 281 280 281 279 280 280 278 275 271 270 267 265
264 266 270 272 269 264 263 267 262 271 286 293 298 304 307 308 303 302 296 297 299 295 293 290 288 285 282 280 279 277 279 278 276 272 273 273 270 269
273 272 274 273 274 273 268 268 268 267 280 292 294 300 301 303 306 305 301 294 293 296 295 292 289 287 284 283 280 278 278 277 276 273 272 272 276 271
274 277 279 284 279 277 272 270 272 268 273 288 296 300 299 300 300 303 303 300 294 295 297 295 292 292 289 286 282 280 279 277 276 273 274 274 272 268
270 273 279 281 283 282 276 275 276 279 274 282 292 297 299 302 305 304 301 299 298 297 299 300 300 300 297 291 287 281 278 276 272 270 272 277 275 269
271 270 273 274 277 280 280 277 281 284 286 288 292 297 299 302 302 305 310 311 308 306 306 306 306 305 304 299 293 288 281 277 273 269 269 269 274 277
286 282 282 286 289 289 289 287 286 287 291 291 293 298 299 307 306 304 305 310 307 299 307 307 309 310 311 304 299 293 286 286 282 277 273 274 273 277
292 295 293 289 295 297 295 292 289 287 288 288 292 295 297 299 300 301 302 307 305 312 308 306 310 309 312 307 308 306 301 304 309 306 296 294 290 289
289 295 301 303 304 293 294 298 296 292 288 284 285 287 292 296 297 297 297 297 291 299 306 299 307 304 312 315 319 327 351 5 3 345 313 303 301 300
290 290 295 300 302 304 302 303 297 295 293 290 282 287 294 295 289 286 289 293 291 297 303 292 306 304 310 318 323 341 0 4 359 349 339 327 322 321
300 302 302 298 303 311 312 306 304 303 306 303 300 300 301 302 304 308 307 307 302 302 320 295 300 308 313 319 322 344 359 359 351 345 342 337 328 325
310 306 307 309 310 315 312 307 307 308 311 315 315 316 314 315 320 314 299 294 295 295 302 307 298 318 330 335 356 354 355 354 352 348 344 339 337 339
309 311 310 316 317 319 320 313 307 312 315 317 321 326 332 335 335 333 322 294 287 281 293 303 301 316 307 318 339 350 353 348 346 346 348 347 341 345
307 310 315 321 322 325 329 326 327 329 324 325 333 336 334 331 329 331 330 321 301 288 299 295 279 294 315 322 321 338 353 349 352 352 354 3 4 5
314 318 325 332 336 335 338 340 342 341 334 334 333 327 323 317 318 323 325 327 337 331 322 310 280 319 337 322 321 327 338 354 11 24 20 16 14 16
328 327 334 341 342 342 346 348 347 341 338 330 326 322 324 327 329 325 321 330 355 3 2 2 3 61 67 32 24 350 350 347 1 15 23 25 23 24
327 332 340 344 352 353 352 352 348 347 347 338 330 328 331 336 335 336 335 345 5 350 355 8 33 56 59 53 53 23 10 17 20 33 46 40 25 19
343 345 345 347 346 344 344 344 343 342 338 334 329 325 328 332 334 340 345 355 357 349 350 348 16 53 45 38 30 40 42 47 40 38 54 55 31 15
4 353 347 343 338 337 337 335 330 331 333 334 333 330 327 329 332 340 349 2 3 357 353 358 14 59 76 41 5 19 53 50 47 44 42 50 36 4
1 347 338 335 331 328 328 326 325 328 333 334 336 333 329 329 336 342 346 354 358 4 17 27 35 58 98 89 17 5 13 40 68 52 37 43 40 24
343 337 332 327 323 321 320 318 318 322 326 329 332 333 329 331 339 341 351 8 13 21 29 17 352 6 85 82 67 33 22 28 43 51 36 47 43 40
334 330 327 322 321 319 317 317 320 324 327 328 330 331 331 333 334 340 5 26 30 32 37 32 28 49 73 87 84 55 30 26 32 34 35 35 118 74
329 326 322 320 318 317 317 318 319 320 319 322 324 323 324 329 335 343 8 26 33 48 62 54 50 61 71 85 88 71 54 34 30 38 37 39 56 78
Height
1461 1460 1458 1456 1455 1453 1451 1449 1446 1438 1429 1427 1427 1425 1424 1421 1419 1416 1413 1411 1409 1406 1404 1402 1400 1399 1397 1396 1395 1395 1395 1394 1394 1393 1394 1394 1394 1395
1457 1455 1453 1451 1450 1448 1446 1444 1442 1439 1430 1424 1422 1420 1418 1416 1413 1410 1408 1405 1402 1400 1398 1395 1393 1391 1390 1389 1388 1387 1387 1386 1386 1386 1386 1386 1387 1387
1452 1450 1448 1446 1444 1442 1441 1439 1437 1435 1428 1421 1419 1416 1413 1410 1406 1404 1401 1399 1396 1393 1391 1389 1387 1385 1383 1381 1380 1380 1379 1379 1378 1379 1379 1379 1379 1380
1447 1445 1443 1441 1439 1437 1435 1433 1431 1429 1425 1418 1413 1411 1408 1405 1402 1398 1396 1393 1391 1388 1385 1383 1380 1378 1376 1375 1374 1373 1372 1372 1372 1372 1372 1373 1373 1373
1442 1440 1439 1437 1434 1432 1430 1428 1425 1423 1420 1416 1410 1407 1403 1400 1397 1393 1390 1387 1385 1382 1380 1377 1375 1372 1370 1369 1367 1366 1366 1365 1365 1365 1366 1367 1367 1368
1438 1436 1434 1432 1430 1427 1425 1423 1420 1418 1415 1411 1406 1402 1399 1396 1393 1389 1384 1382 1379 1377 1375 1372 1370 1367 1365 1363 1362 1361 1360 1360 1360 1360 1361 1361 1362 1363
1433 1432 1430 1428 1425 1423 1421 1418 1416 1413 1410 1407 1402 1398 1395 1392 1389 1386 1382 1378 1375 1373 1370 1367 1365 1362 1360 1358 1357 1356 1356 1355 1355 1355 1356 1357 1358 1358
1428 1427 1425 1423 1421 1418 1416 1414 1412 1409 1405 1403 1399 1395 1391 1389 1386 1382 1379 1375 1370 1369 1366 1363 1361 1358 1356 1355 1353 1352 1351 1351 1351 1352 1353 1353 1354 1354
1424 1422 1420 1418 1416 1413 1411 1409 1407 1404 1402 1400 1395 1391 1388 1385 1382 1378 1375 1372 1368 1366 1363 1359 1358 1355 1353 1352 1350 1349 1348 1348 1348 1349 1350 1351 1351 1351
1420 1418 1415 1413 1411 1409 1406 1403 1401 1399 1397 1394 1391 1387 1384 1381 1378 1376 1372 1368 1365 1363 1361 1357 1354 1352 1351 1350 1349 1347 1347 1346 1347 1347 1347 1348 1348 1348
1416 1414 1411 1409 1407 1405 1402 1399 1395 1393 1391 1389 1386 1383 1380 1377 1374 1372 1368 1365 1361 1359 1358 1355 1352 1350 1349 1347 1347 1347 1346 1345 1345 1345 1345 1346 1346 1346
1412 1410 1408 1405 1403 1401 1398 1395 1391 1388 1386 1383 1380 1377 1375 1373 1371 1369 1366 1363 1360 1357 1355 1354 1351 1349 1347 1346 1346 1346 1345 1344 1344 1344 1344 1344 1344 1344
1408 1405 1403 1401 1399 1397 1395 1391 1388 1386 1382 1379 1376 1374 1372 1369 1367 1365 1364 1362 1359 1356 1355 1353 1350 1349 1348 1346 1345 1345 1344 1343 1343 1343 1343 1343 1343 1343
1405 1402 1400 1398 1396 1393 1391 1388 1386 1383 1380 1376 1374 1371 1369 1367 1365 1363 1361 1359 1357 1356 1354 1352 1350 1349 1347 1346 1345 1344 1344 1343 1342 1342 1342 1342 1342 1342
1403 1400 1398 1396 1393 1390 1388 1386 1383 1380 1377 1374 1372 1370 1368 1366 1363 1361 1359 1357 1356 1354 1353 1351 1350 1349 1348 1347 1345 1344 1343 1342 1342 1342 1342 1341 1341 1341
1400 1398 1396 1393 1391 1388 1386 1383 1381 1378 1376 1373 1371 1369 1367 1364 1362 1360 1358 1356 1355 1353 1353 1352 1350 1349 1348 1347 1346 1345 1344 1343 1343 1342 1342 1341 1341 1341
1398 1396 1393 1391 1388 1386 1384 1381 1379 1377 1375 1372 1370 1368 1365 1363 1361 1359 1357 1356 1354 1353 1352 1352 1351 1350 1349 1348 1347 1346 1345 1344 1344 1343 1342 1342 1342 1342
1396 1393 1391 1389 1387 1384 1382 1380 1378 1376 1374 1372 1369 1367 1365 1363 1361 1359 1357 1356 1354 1354 1353 1352 1351 1350 1350 1349 1349 1348 1347 1346 1346 1345 1345 1344 1343 1344
1394 1392 1390 1388 1386 1384 1381 1379 1377 1375 1373 1371 1369 1367 1365 1363 1361 1359 1358 1357 1355 1354 1354 1353 1352 1351 1350 1350 1351 1351 1349 1348 1348 1347 1347 1347 1346 1346
1393 1391 1389 1387 1385 1383 1381 1379 1376 1374 1372 1370 1368 1366 1365 1363 1361 1360 1359 1357 1356 1355 1354 1354 1353 1353 1352 1352 1352 1352 1352 1351 1350 1349 1349 1349 1348 1348
1392 1390 1388 1386 1384 1382 1380 1378 1376 1374 1372 1370 1368 1366 1364 1363 1362 1360 1359 1359 1357 1356 1355 1355 1355 1355 1355 1354 1354 1353 1354 1353 1353 1352 1351 1351 1350 1350
1391 1389 1387 1385 1383 1381 1379 1377 1375 1373 1371 1369 1367 1366 1364 1363 1362 1361 1360 1359 1358 1358 1357 1357 1357 1357 1357 1356 1355 1355 1355 1355 1355 1355 1355 1354 1353 1352
1390 1388 1386 1384 1382 1380 1378 1376 1374 1372 1370 1368 1367 1365 1364 1363 1362 1361 1361 1360 1360 1359 1359 1359 1359 1358 1358 1358 1357 1357 1357 1357 1356 1356 1357 1357 1356 1356